[Iaude] MPEC S37: 2016 SE

mpec at si.edu mpec at si.edu
Thu Sep 29 16:08:24 EDT 2016


M.P.E.C. 2016-S37                                Issued 2016 Sept. 24, 18:42 UT
 
     The Minor Planet Electronic Circulars contain information on unusual
         minor planets and routine data on comets.  They are published
    on behalf of Division F of the International Astronomical Union by the
          Minor Planet Center, Smithsonian Astrophysical Observatory,
                          Cambridge, MA 02138, U.S.A.

             Prepared using the Tamkin Foundation Computer Network

                              MPC at CFA.HARVARD.EDU
            URL http://www.minorplanetcenter.net/    ISSN 1523-6714


                                    2016 SE
 
Observations:
     K16S00E* C2016 09 22.22117 23 36 46.23 +05 18 50.0          21.6 VqES037G96
     K16S00E  C2016 09 22.22568 23 36 44.18 +05 19 32.8          21.2 VqES037G96
     K16S00E  C2016 09 22.22999 23 36 42.23 +05 20 13.3          21.0 VqES037G96
     K16S00E  C2016 09 22.23428 23 36 40.27 +05 20 53.4          21.4 VqES037G96
     K16S00E  C2016 09 22.25951 23 36 28.70 +05 24 52.7          21.4 VqES037G96
     K16S00E  C2016 09 22.26062 23 36 28.19 +05 25 02.4          20.8 VqES037G96
     K16S00E  C2016 09 22.26283 23 36 27.20 +05 25 23.7          21.5 VqES037G96
     K16S00E KC2016 09 22.46589 23 34 55.62 +05 57 01.1                oES037291
     K16S00E KC2016 09 22.46927 23 34 54.16 +05 57 31.9                oES037291
     K16S00E KC2016 09 22.47266 23 34 52.60 +05 58 04.7                oES037291
     K16S00E "C2016 09 23.32645523 29 02.00 +08 08 25.4          21.2 RtES037705
     K16S00E "C2016 09 23.32747223 29 01.54 +08 08 34.2          21.2 RtES037705
     K16S00E "C2016 09 23.32849223 29 01.12 +08 08 42.8          21.3 RtES037705
     K16S00E KC2016 09 24.14994 23 23 35.98 +10 09 09.3          20.8 RoES037291
     K16S00E KC2016 09 24.15339 23 23 34.55 +10 09 39.3          20.9 RoES037291
 
Observer details:
291 LPL/Spacewatch II.  Observers R. A. Mastaler, T. H. Bressi.  1.8-m f/2.7
    reflector + CCD.
705 Apache Point.  Observers K. Nault, M. Hammergren, M. Brucker.  Measurer
    K. Nault.  3.5-m f/10 reflector + CCD.
G96 Mt. Lemmon Survey.  Observer R. A. Kowalski.  Measurers E. J. Christensen,
    D. C. Fuls, A. R. Gibbs, A. D. Grauer, J. A. Johnson, R. A. Kowalski,
    S. M. Larson, G. J. Leonard, R. G. Matheny, R. L. Seaman, F. C. Shelly.
    1.5-m reflector + 10K CCD.
 
Orbital elements:
2016 SE                                                  Earth MOID = 0.0824 AU
Epoch 2016 July 31.0 TT = JDT 2457600.5                 MPC
M 347.67394              (2000.0)            P               Q
n   0.79135157     Peri.  327.95352     +0.82260786     +0.56844843
a   1.1575944      Node   357.28792     -0.44252269     +0.62509084
e   0.0691169      Incl.   16.59775     -0.35705738     +0.53490918
P   1.25           H   25.9           G   0.15           U   7
Residuals in seconds of arc
160922 G96  0.2-  0.4-    160922 G96  0.1-  0.1+    160923 705  0.1+  0.4+
160922 G96  0.1-  0.1-    160922 G96  0.2+  0.6+    160923 705  0.1-  0.1+
160922 G96  0.2+  0.3-    160922 291  0.3+  0.1-    160923 705  0.4+  0.4-
160922 G96  0.2+  0.7-    160922 291  0.4+  0.6-    160924 291  0.3-  0.0
160922 G96  0.1-  0.8+    160922 291  0.8-  0.7+    160924 291  0.2+  0.0

Ephemeris:
2016 SE                  a,e,i = 1.16, 0.07, 17                  q = 1.0776
Date    TT    R. A. (2000) Decl.     Delta      r     Elong.  Phase     V
2016 08 25    02 40 24.3 -46 45 51   0.1454  1.0784   114.1    58.8    24.0
...
2016 09 09    01 17 16.4 -29 09 59   0.09427 1.0828   141.7    35.2    22.4
...
2016 09 17    00 15 44.1 -09 12 46   0.08308 1.0866   168.5    10.6    21.3
...
2016 09 23    23 31 18.6 +07 19 47   0.08801 1.0901   169.7     9.5    21.4
2016 09 24    23 24 32.1 +09 48 06   0.08992 1.0907   166.4    12.5    21.6
2016 09 25    23 17 59.6 +12 08 55   0.09212 1.0914   163.3    15.3    21.8
...
2016 10 01    22 44 12.3 +23 25 37   0.1100  1.0956   147.5    29.4    22.6
...
2016 10 09    22 13 58.9 +32 16 48   0.1421  1.1018   133.7    40.9    23.5
...
2016 10 24    21 51 56.3 +39 32 09   0.2115  1.1154   120.0    50.6    24.6

A. U. Tomatic                (C) Copyright 2016 MPC           M.P.E.C. 2016-S37




More information about the Iaude mailing list